This is the latest recevied weather packets stored in our database for station/object OK3MS-5. If no packets are shown the sender has not sent any weather packets the latest 10 day(s).
| Time | Temp. | Humidity | Pressure | Rain* | Wind** | Luminosity | Snow |
|---|---|---|---|---|---|---|---|
| 1787844303 | 26.11° C | 51% | 1014.1 hPa | 0 mm | - | 126 W/m² | - |
| 1787844003 | 26.67° C | 51% | 1014.1 hPa | 0 mm | - | 126 W/m² | - |
| 1787843703 | 26.11° C | 51% | 1014.1 hPa | 0 mm | - | 161 W/m² | - |
| 1787843402 | 26.67° C | 50% | 1014.1 hPa | 0 mm | - | 168 W/m² | - |
| 1787843107 | 26.67° C | 49% | 1014 hPa | 0 mm | - | 181 W/m² | - |
| 1787842804 | 27.22° C | 48% | 1013.9 hPa | 0 mm | - | 201 W/m² | - |
| 1787842503 | 27.22° C | 48% | 1013.9 hPa | 0 mm | - | 264 W/m² | - |
| 1787842204 | 27.22° C | 48% | 1013.6 hPa | 0 mm | - | 351 W/m² | - |
| 1787841904 | 27.78° C | 48% | 1013.8 hPa | 0 mm | - | 234 W/m² | - |
| 1787841603 | 27.22° C | 48% | 1013.7 hPa | 0 mm | - | 372 W/m² | - |
| 1787841303 | 27.78° C | 46% | 1013.5 hPa | 0 mm | - | 296 W/m² | - |
| 1787841005 | 27.78° C | 47% | 1013.5 hPa | 0 mm | - | 454 W/m² | - |
| 1787840705 | 27.78° C | 47% | 1013.5 hPa | 0 mm | - | 371 W/m² | - |
| 1787840404 | 27.22° C | 48% | 1013.6 hPa | 0 mm | - | 410 W/m² | - |
| 1787840103 | 27.22° C | 46% | 1013.7 hPa | 0 mm | - | 405 W/m² | - |
| 1787839807 | 27.78° C | 47% | 1013.7 hPa | 0 mm | - | 428 W/m² | - |
| 1787839504 | 27.22° C | 48% | 1013.8 hPa | 0 mm | - | 409 W/m² | - |
| 1787839206 | 27.22° C | 48% | 1013.8 hPa | 0 mm | - | 361 W/m² | - |
| 1787838904 | 27.22° C | 48% | 1013.9 hPa | 0 mm | - | 511 W/m² | - |
| 1787838604 | 27.22° C | 48% | 1014 hPa | 0 mm | - | 456 W/m² | - |
| 1787838304 | 27.22° C | 48% | 1013.9 hPa | 0 mm | - | 442 W/m² | - |
| 1787838004 | 27.22° C | 49% | 1014 hPa | 0 mm | - | 484 W/m² | - |
| 1787837703 | 27.22° C | 48% | 1013.9 hPa | 0 mm | - | 534 W/m² | - |
| 1787837402 | 27.22° C | 49% | 1013.9 hPa | 0 mm | - | 527 W/m² | - |
| 1787837103 | 27.22° C | 49% | 1013.9 hPa | 0 mm | - | 550 W/m² | - |
* Rain latest hour (hover to see other rain measurements)
** Current wind speed in m/s (hover to see current wind gust speed)